Location: ?????????
(53.2086°N, 54.0693°E)
Time: 03:22:48
(UTC+00:00)

Cosmos 1315 Rocket - Pass Details

Date: 08 December 2019
Orbit: 529 x 569 km, 81.2° (Epoch: 27 January)

Event Time Altitude Azimuth Distance (km) Brightness Sun altitude
Rises 12:46:44 0° 169° (S) 2,689 6.6 -5.8°
Reaches altitude 10° 12:48:58 10° 161° (SSE) 1,809 5.6 -6.1°
Maximum altitude 12:52:38 36° 94° (E) 883 3.5 -6.5°
Drops below altitude 10° 12:56:22 10° 28° (NNE) 1,846 5.0 -7.0°
Enters shadow 12:58:02 - 21° (NNE) 2,496 5.7 -7.2°
